Simultaneous Nadir Overpasses (SNOs) Predictions

Prediction of SNOs between GOES-17 and NPP Satellite Orbit:

Table of predicted SNOs for the next 14.0 days since TLE Epoch: 3/14/2025
Index Date Time (GOES-17) GOES-17 Lat,Lon NPP Lat,Lon Distance(km) Time Diff (sec)
1 03/14/2025 20:17:49 0.03,-104.42 0.41,-102.78 187.34 80
2 03/16/2025 08:39:34 -0.03,-104.39 0.78,-108.03 414.90 80
3 03/17/2025 08:18:07 -0.03,-104.39 -0.21,-103.49 102.36 80
4 03/18/2025 20:40:02 0.03,-104.42 -0.96,-108.78 497.41 80
5 03/19/2025 20:23:56 0.03,-104.42 0.09,-104.25 20.05 80
6 03/22/2025 08:26:55 -0.03,-104.38 0.08,-104.96 65.44 80
7 03/23/2025 08:05:29 -0.02,-104.38 -0.93,-100.42 451.69 80
8 03/24/2025 20:27:22 0.01,-104.40 -0.28,-105.70 148.24 80
9 03/25/2025 20:11:16 0.01,-104.40 0.73,-101.16 369.10 80
10 03/27/2025 08:33:00 -0.00,-104.37 0.48,-106.41 232.84 80
11 03/28/2025 08:11:33 -0.00,-104.37 -0.53,-101.87 284.40 80
